Wind_Speed
2 2 2 4 5 6 6 7 8 9 9 9 9 9 9 9 10 10 10 9 8 8 8 8 8 8 8 9 9 12 11 12 13 14 14 14 14 17 14 14 17 29 29 29 29 29 28
3 2 4 4 6 6 6 6 9 9 10 10 10 10 10 11 11 11 10 9 7 7 8 8 7 7 8 7 10 11 13 14 14 15 18 19 19 21 25 23 23 22 24 28 25 26 28
4 3 4 5 6 6 6 8 9 11 11 12 12 12 11 11 12 11 11 11 10 10 9 9 9 10 10 12 11 12 12 16 18 19 20 24 22 23 19 21 20 23 31 31 35 31 34
3 3 4 3 5 6 7 9 11 11 15 14 13 12 11 10 11 10 10 10 10 9 9 10 11 12 11 8 10 15 19 21 21 20 20 21 20 21 23 23 28 29 30 39 37 29 30
3 4 3 3 5 7 8 9 12 14 14 15 13 11 9 9 10 10 9 9 9 9 10 11 11 10 9 14 18 19 18 19 21 23 22 21 18 16 14 19 23 25 33 35 38 29 28
4 3 2 4 6 8 7 8 9 13 12 13 12 9 7 7 8 9 8 8 8 9 9 9 5 7 12 12 15 18 21 21 21 21 11 11 9 11 14 16 23 25 28 30 33 29 28
5 3 3 5 6 8 7 8 9 9 10 11 10 7 6 6 7 7 6 7 7 8 9 7 8 7 10 11 16 19 21 20 15 12 11 11 13 15 17 17 21 23 26 31 33 33 31
5 5 5 6 6 7 6 7 9 10 10 10 9 7 7 6 5 5 5 6 5 5 6 7 6 6 8 14 12 12 17 13 14 13 14 14 17 14 13 14 16 18 23 28 31 29 30
8 8 7 8 7 7 2 5 6 8 10 8 9 7 7 5 4 4 4 4 5 7 1 4 4 7 13 17 17 9 17 15 13 14 13 17 18 20 13 15 18 21 24 26 28 29 32
10 10 8 6 6 7 6 3 4 6 8 8 9 8 6 5 3 3 4 4 6 6 4 3 5 8 12 14 7 16 10 15 12 15 16 15 10 14 16 19 19 23 21 24 27 28 31
10 10 9 7 6 5 5 5 4 6 7 7 8 6 5 4 3 3 3 5 5 3 1 1 4 11 10 11 12 2 15 12 13 16 15 20 20 19 20 19 12 19 18 22 26 30 31
11 10 8 5 5 5 5 5 6 6 7 8 8 5 4 4 3 3 4 4 3 4 2 2 3 6 12 9 9 10 13 13 16 14 14 18 17 16 16 16 15 19 19 23 29 31 22
11 10 8 6 5 5 4 3 5 6 7 9 8 5 3 3 3 3 4 3 4 4 2 1 5 10 11 8 7 10 12 10 11 14 12 18 15 11 8 12 17 16 17 12 17 10 12
13 11 9 7 6 5 3 3 4 5 5 6 8 5 3 3 3 3 3 4 3 2 2 6 7 9 4 7 7 12 10 11 9 10 16 13 16 3 5 16 19 19 19 10 8 11 18
13 10 9 7 5 4 4 3 4 6 4 4 4 4 3 3 3 1 2 5 2 2 4 5 7 4 5 8 9 10 13 7 6 10 9 14 13 19 20 13 12 16 21 20 20 24 18
12 11 9 7 6 5 4 3 4 5 5 4 2 2 3 3 3 1 3 4 3 4 3 4 2 3 5 9 10 9 10 7 6 8 10 14 29 16 14 14 18 12 17 14 6 6 9
11 10 9 7 6 5 4 4 4 4 4 4 3 2 2 3 3 2 4 4 4 2 3 1 3 5 7 10 8 11 9 9 6 9 12 17 15 24 23 18 18 19 17 6 9 11 6
10 9 8 7 7 6 5 5 4 4 4 5 4 3 4 4 3 4 4 4 3 3 4 3 5 6 6 8 12 12 11 9 7 13 19 9 13 24 26 24 22 20 6 8 7 14 22
9 8 7 6 6 5 5 5 5 4 4 5 5 5 5 5 5 6 4 5 4 3 3 4 5 6 7 9 10 7 10 10 14 15 11 14 12 26 23 14 7 4 14 18 16 16 21
8 8 7 7 6 7 7 6 6 5 6 6 7 5 6 7 8 5 5 6 6 6 6 7 7 8 8 11 11 13 16 18 16 16 19 23 24 23 25 27 31 30 31 28 18 19 26
10 8 7 7 7 8 8 7 7 7 6 7 8 7 7 5 9 7 7 6 7 5 6 6 4 7 9 13 14 19 16 17 22 20 18 12 17 19 24 27 29 32 34 31 27 29 27
11 11 9 9 9 9 10 8 8 8 8 9 10 10 9 9 9 8 9 8 9 8 7 5 9 10 12 15 17 26 23 22 23 14 10 11 19 17 31 26 28 32 31 31 28 28 29
13 12 11 10 9 10 11 10 9 9 9 9 10 11 11 10 9 9 10 8 8 9 10 9 10 10 14 17 19 20 21 21 21 21 18 19 22 22 33 24 24 27 26 22 22 23 23
16 14 13 12 12 12 12 11 11 10 11 11 13 14 14 12 11 10 11 10 10 10 10 10 12 14 14 19 23 17 16 15 17 18 16 20 20 21 27 22 17 23 9 12 6 8 9
17 16 14 13 13 13 12 12 12 12 13 13 12 14 14 14 11 12 13 12 11 12 12 11 11 14 18 15 14 8 5 4 7 9 9 13 15 15 10 18 20 16 8 6 9 10 11
18 17 17 15 15 14 13 14 14 14 14 13 14 14 15 16 12 11 9 10 10 11 12 12 13 10 13 9 5 3 3 5 3 6 8 10 11 13 14 12 8 9 11 16 14 14 15
18 18 17 16 16 15 14 14 14 14 14 14 14 15 16 17 16 15 11 10 10 11 11 11 10 9 10 6 6 7 10 8 7 6 7 8 12 15 14 12 13 14 18 18 11 9 16
17 17 16 16 15 15 15 15 15 15 15 15 14 15 16 18 18 20 18 16 13 13 14 13 11 12 9 6 5 8 8 10 12 12 14 13 11 11 8 7 10 9 22 17 20 23 18
16 16 15 15 15 16 16 16 16 16 16 17 17 16 18 19 18 18 17 13 19 18 20 19 15 8 7 6 7 8 10 10 12 17 9 12 12 12 10 15 24 21 17 18 21 17 19
Wind_Direction
199 248 293 296 289 293 301 306 305 302 299 296 291 287 286 288 289 290 295 301 303 299 298 294 293 291 289 279 283 286 286 287 288 287 281 273 263 260 263 259 259 251 262 264 262 261 259
212 253 270 277 283 292 296 301 301 296 296 290 286 289 292 294 296 301 306 310 317 314 313 312 316 315 313 290 294 288 292 294 295 296 293 284 274 269 266 263 259 261 263 263 262 259 257
204 234 259 274 288 296 307 308 303 301 295 294 297 301 304 306 310 318 325 328 333 335 332 329 331 326 315 307 296 294 294 303 304 298 291 285 280 275 260 270 272 269 270 272 266 267 265
214 240 257 276 301 318 316 315 310 311 305 305 304 306 309 315 318 325 330 332 334 334 334 333 329 317 309 300 304 309 319 322 320 317 310 300 292 279 269 267 268 272 273 270 267 265 264
206 239 268 306 322 309 317 321 319 315 310 306 304 309 316 322 323 329 333 335 338 340 339 340 329 336 330 321 331 332 335 333 328 324 318 311 306 293 272 271 277 266 262 268 271 260 260
205 231 291 307 304 297 305 314 320 313 310 306 304 312 321 328 329 335 337 335 338 339 338 336 344 340 322 324 328 333 333 331 331 334 341 346 320 296 283 264 266 280 278 272 270 268 261
201 247 277 289 291 291 306 316 320 311 309 306 306 317 332 342 342 337 332 333 330 335 337 330 322 318 323 336 335 335 333 337 348 340 312 299 298 281 285 278 275 276 275 272 269 267 270
220 235 253 261 264 276 314 320 329 319 312 310 311 325 336 344 341 330 324 342 341 311 315 328 346 357 354 344 355 339 337 335 334 320 311 305 285 293 292 286 279 274 275 273 275 273 270
227 237 239 255 265 270 256 310 323 320 310 311 310 325 337 336 340 333 348 343 343 343 351 357 37 354 339 336 328 324 326 325 317 313 304 291 284 287 285 290 286 277 274 279 279 280 273
236 244 241 244 258 276 296 304 310 311 307 311 310 320 326 325 337 349 349 358 344 344 130 21 358 331 336 340 344 321 329 326 314 305 303 295 290 280 284 283 283 280 278 281 282 279 274
237 236 235 237 259 273 289 304 307 315 309 306 303 311 316 326 339 352 4 360 356 5 191 305 319 324 342 335 326 20 322 330 308 301 297 283 282 276 277 289 277 284 285 278 276 275 279
226 232 235 248 263 290 303 312 312 316 309 305 301 303 314 323 344 4 14 11 32 111 108 311 309 314 337 325 325 315 326 324 314 301 297 290 286 265 264 280 281 273 285 286 276 261 257
221 221 220 218 240 251 260 290 300 305 312 305 302 301 322 333 349 3 21 26 74 77 272 251 287 318 331 320 332 334 339 329 354 340 329 315 308 253 263 285 285 288 306 301 289 238 243
218 216 221 219 229 235 241 263 262 274 292 300 301 306 328 346 341 353 40 71 102 150 181 297 318 326 325 343 327 335 333 323 324 334 318 323 314 312 333 310 298 296 301 285 299 319 309
222 217 216 212 220 233 245 257 272 288 288 286 291 300 316 324 321 354 99 103 114 148 247 320 342 329 321 333 329 328 328 314 336 348 351 316 283 291 307 297 304 296 295 301 293 289 274
218 218 216 211 206 204 216 229 251 266 286 291 280 283 296 303 298 244 148 146 192 212 290 349 342 305 308 314 310 321 324 299 295 324 332 309 301 299 301 297 293 277 299 305 278 285 300
217 213 210 209 200 203 220 233 238 249 269 273 264 243 261 281 270 227 182 181 208 243 302 289 267 287 293 304 298 307 297 302 285 319 317 308 286 294 301 292 295 303 295 301 309 277 301
213 213 215 210 202 198 204 225 244 260 268 274 259 227 246 235 242 216 195 196 241 249 301 287 295 280 283 291 296 289 285 279 293 306 312 304 307 296 295 293 274 277 273 8 347 327 311
206 209 217 228 223 214 214 221 235 251 253 258 254 249 225 228 222 203 230 236 241 243 232 252 265 274 286 295 304 288 287 286 287 295 293 310 296 307 302 305 205 285 306 318 318 306 286
202 213 218 225 233 231 224 222 232 233 243 252 253 243 237 237 202 227 211 230 236 249 254 260 266 278 290 292 281 280 290 296 293 293 291 290 282 267 271 283 292 298 294 296 290 283 288
207 213 222 233 234 241 236 227 235 246 248 250 255 250 237 229 242 238 234 220 216 247 279 272 281 271 292 291 286 287 289 289 294 295 292 276 280 277 278 277 283 284 287 288 279 275 265
224 217 217 226 234 242 250 240 234 239 241 246 254 253 249 246 249 235 240 227 219 228 246 241 257 281 285 285 286 293 296 294 292 293 279 277 278 285 279 285 280 280 280 275 268 266 265
235 237 233 230 230 240 247 248 244 245 250 255 256 259 258 254 243 237 238 233 230 232 267 256 261 278 292 296 284 283 281 280 272 273 275 278 275 278 277 291 292 282 283 274 258 251 266
238 238 238 238 234 233 243 246 248 249 246 249 246 251 257 256 236 247 251 233 242 248 256 263 275 285 290 277 293 302 289 277 267 267 264 266 275 279 279 290 273 287 288 305 282 272 286
240 240 240 237 242 241 243 249 247 248 248 247 247 252 260 265 260 243 250 256 256 257 266 273 269 271 287 310 309 319 324 279 266 259 255 256 269 281 287 305 289 281 290 314 323 317 343
236 238 240 240 243 245 244 248 247 247 247 249 249 254 259 264 290 246 239 251 252 255 256 264 279 290 298 298 291 276 286 281 291 282 248 266 267 277 286 296 294 339 346 327 314 273 347
239 239 242 241 242 245 245 246 251 251 252 254 254 249 256 264 262 259 245 250 251 242 249 266 278 285 290 277 260 267 263 265 268 247 259 276 275 259 266 267 285 321 337 334 297 324 343
238 240 241 244 245 246 248 250 246 250 252 256 258 258 259 263 264 268 256 251 250 253 261 265 278 287 269 235 250 256 260 252 263 265 273 270 273 284 251 263 274 317 326 329 318 321 320
235 238 240 245 247 249 250 250 249 248 248 253 254 257 262 265 266 276 269 256 263 248 266 261 249 256 252 236 245 252 257 262 265 273 263 268 253 275 286 274 289 307 306 304 309 311 313
Height
3112 3113 3114 3115 3116 3117 3117 3117 3117 3117 3117 3116 3116 3115 3114 3113 3113 3113 3113 3113 3114 3114 3114 3114 3114 3113 3113 3113 3112 3111 3110 3110 3110 3108 3109 3109 3113 3112 3113 3115 3115 3114 3115 3115 3116 3117 3117
3109 3111 3112 3112 3113 3115 3115 3114 3115 3115 3115 3115 3114 3113 3111 3110 3109 3109 3109 3110 3112 3112 3112 3111 3111 3111 3111 3111 3109 3108 3108 3108 3106 3106 3106 3106 3106 3105 3103 3105 3106 3107 3106 3104 3104 3105 3107
3106 3108 3110 3111 3112 3113 3113 3113 3113 3114 3113 3112 3110 3109 3108 3107 3106 3105 3105 3106 3107 3108 3107 3107 3107 3107 3107 3108 3106 3105 3105 3104 3103 3102 3102 3100 3101 3100 3100 3098 3100 3099 3095 3094 3094 3097 3097
3104 3106 3107 3109 3110 3110 3111 3112 3113 3111 3112 3109 3107 3106 3105 3104 3103 3103 3103 3104 3104 3105 3105 3105 3105 3104 3104 3103 3102 3101 3099 3097 3096 3096 3096 3094 3094 3093 3093 3093 3091 3092 3092 3087 3086 3091 3091
3103 3105 3106 3107 3107 3108 3107 3107 3108 3108 3108 3108 3105 3104 3103 3103 3102 3102 3102 3102 3102 3103 3103 3103 3102 3101 3100 3099 3097 3096 3095 3094 3093 3091 3089 3088 3086 3087 3090 3090 3089 3087 3082 3080 3079 3085 3085
3101 3104 3104 3105 3105 3106 3104 3105 3104 3106 3105 3105 3104 3102 3103 3103 3101 3100 3099 3099 3100 3101 3101 3100 3100 3103 3100 3098 3096 3095 3094 3092 3091 3089 3088 3088 3088 3087 3087 3086 3081 3078 3075 3072 3071 3077 3078
3099 3101 3101 3102 3103 3103 3103 3102 3102 3103 3103 3104 3103 3102 3101 3101 3101 3100 3099 3099 3102 3101 3099 3099 3099 3099 3098 3097 3095 3093 3091 3090 3089 3091 3091 3090 3088 3085 3083 3081 3079 3078 3076 3071 3069 3071 3072
3096 3097 3097 3098 3099 3100 3099 3099 3100 3101 3101 3102 3101 3100 3100 3100 3099 3099 3099 3099 3099 3101 3098 3097 3097 3097 3096 3096 3096 3094 3091 3092 3090 3090 3088 3087 3084 3082 3079 3079 3077 3075 3072 3067 3064 3065 3065
3093 3094 3094 3096 3097 3097 3092 3095 3095 3098 3100 3100 3100 3098 3098 3098 3098 3099 3098 3099 3098 3097 3098 3097 3097 3097 3097 3096 3094 3093 3090 3088 3089 3087 3086 3084 3082 3079 3078 3076 3074 3071 3068 3064 3061 3059 3056
3090 3092 3093 3093 3093 3094 3093 3091 3091 3094 3097 3098 3098 3097 3096 3097 3099 3097 3097 3097 3096 3095 3098 3100 3099 3097 3096 3094 3094 3090 3088 3088 3086 3085 3083 3080 3077 3076 3075 3072 3071 3066 3066 3062 3058 3056 3049
3087 3089 3089 3089 3091 3090 3090 3091 3090 3091 3094 3096 3097 3097 3096 3095 3096 3096 3097 3095 3094 3094 3097 3100 3099 3096 3095 3096 3094 3094 3088 3084 3083 3082 3082 3077 3074 3072 3070 3069 3067 3065 3062 3059 3055 3051 3047
3084 3086 3087 3087 3089 3089 3090 3090 3090 3089 3093 3094 3096 3095 3094 3094 3093 3094 3094 3094 3095 3097 3097 3099 3097 3096 3096 3094 3092 3089 3087 3085 3082 3078 3076 3073 3070 3068 3067 3066 3064 3061 3058 3053 3047 3042 3039
3081 3083 3083 3082 3085 3086 3087 3087 3088 3089 3092 3094 3094 3093 3092 3092 3092 3092 3093 3094 3096 3095 3099 3100 3097 3095 3093 3092 3090 3088 3085 3083 3082 3078 3074 3070 3063 3062 3064 3065 3061 3057 3054 3047 3037 3030 3027
3078 3079 3080 3080 3082 3084 3085 3085 3085 3086 3088 3090 3092 3092 3090 3090 3090 3090 3091 3093 3095 3096 3097 3094 3093 3093 3092 3089 3089 3086 3085 3084 3080 3079 3075 3070 3065 3063 3063 3064 3060 3055 3053 3050 3039 3031 3026
3077 3077 3077 3077 3080 3082 3084 3084 3085 3086 3086 3087 3088 3089 3089 3088 3088 3089 3090 3090 3093 3096 3094 3093 3092 3092 3091 3090 3088 3086 3084 3082 3080 3078 3079 3073 3065 3062 3062 3060 3060 3055 3051 3049 3043 3036 3028
3073 3074 3075 3075 3077 3078 3081 3082 3083 3084 3085 3086 3086 3087 3087 3086 3086 3087 3088 3089 3090 3090 3090 3090 3092 3090 3090 3089 3087 3085 3082 3082 3081 3079 3078 3075 3064 3062 3059 3057 3057 3053 3052 3047 3041 3035 3025
3071 3071 3071 3073 3074 3076 3078 3079 3081 3082 3083 3083 3084 3084 3084 3084 3085 3086 3086 3086 3086 3087 3088 3090 3089 3089 3088 3087 3086 3084 3082 3081 3078 3078 3076 3073 3068 3060 3058 3055 3052 3051 3049 3046 3044 3040 3029
3068 3069 3070 3070 3072 3073 3075 3077 3079 3080 3080 3082 3081 3082 3082 3082 3084 3083 3084 3085 3085 3084 3084 3085 3085 3085 3085 3084 3083 3081 3080 3079 3076 3076 3073 3070 3064 3059 3054 3050 3049 3048 3046 3044 3044 3040 3038
3065 3065 3066 3069 3070 3071 3073 3075 3076 3077 3077 3078 3079 3079 3079 3079 3079 3080 3081 3082 3082 3082 3083 3083 3084 3083 3082 3082 3082 3078 3077 3076 3074 3073 3071 3067 3064 3058 3049 3046 3042 3043 3043 3045 3046 3044 3035
3061 3063 3063 3066 3067 3069 3070 3072 3073 3073 3074 3076 3077 3078 3077 3076 3076 3077 3079 3080 3079 3079 3078 3079 3079 3079 3080 3079 3078 3075 3073 3073 3070 3068 3067 3065 3061 3059 3054 3049 3043 3042 3041 3042 3043 3040 3032
3057 3059 3061 3062 3064 3066 3068 3068 3070 3070 3072 3073 3073 3075 3075 3074 3074 3074 3075 3076 3077 3077 3075 3075 3076 3077 3077 3075 3074 3071 3069 3067 3066 3063 3060 3059 3055 3054 3049 3045 3042 3037 3034 3033 3034 3031 3032
3055 3056 3057 3059 3061 3063 3066 3066 3067 3068 3069 3070 3072 3072 3072 3072 3072 3071 3071 3072 3074 3075 3074 3074 3074 3074 3073 3071 3070 3066 3065 3063 3059 3057 3056 3055 3050 3049 3041 3040 3036 3029 3027 3025 3024 3022 3021
3052 3055 3055 3056 3057 3059 3061 3064 3064 3064 3064 3066 3068 3068 3068 3069 3069 3070 3069 3069 3069 3069 3070 3069 3069 3068 3068 3067 3063 3058 3055 3054 3052 3051 3051 3050 3047 3045 3034 3033 3029 3023 3019 3015 3013 3014 3014
3048 3050 3051 3053 3054 3056 3057 3059 3060 3060 3062 3063 3063 3065 3065 3065 3065 3066 3065 3064 3066 3065 3066 3066 3065 3064 3065 3058 3054 3050 3048 3047 3046 3045 3047 3045 3044 3041 3031 3028 3022 3013 3012 3010 3009 3008 3007
3044 3045 3047 3049 3051 3052 3053 3053 3056 3057 3058 3060 3060 3061 3061 3060 3061 3063 3062 3061 3062 3062 3060 3060 3061 3058 3053 3052 3050 3046 3046 3045 3043 3043 3043 3041 3040 3036 3031 3023 3016 3011 3012 3010 3009 3008 3005
3039 3040 3042 3043 3046 3047 3048 3051 3052 3053 3054 3055 3056 3057 3057 3057 3058 3058 3059 3059 3060 3060 3060 3057 3053 3051 3050 3049 3048 3048 3045 3043 3043 3040 3040 3039 3036 3035 3029 3025 3014 3011 3011 3010 3007 3005 3004
3034 3036 3038 3039 3041 3043 3044 3046 3047 3048 3049 3051 3051 3052 3053 3052 3053 3053 3054 3056 3056 3055 3053 3051 3049 3048 3047 3046 3047 3046 3043 3042 3039 3037 3036 3035 3032 3029 3026 3023 3016 3011 3010 3007 3005 3008 3003
3029 3031 3033 3035 3037 3038 3039 3040 3042 3044 3044 3045 3047 3047 3048 3047 3047 3046 3048 3049 3049 3049 3048 3047 3047 3044 3043 3044 3045 3043 3040 3039 3036 3034 3032 3031 3028 3024 3022 3019 3014 3011 3010 3011 3007 3002 3001
3025 3027 3028 3031 3032 3033 3034 3035 3037 3039 3040 3041 3042 3043 3042 3042 3042 3041 3042 3042 3042 3045 3044 3042 3043 3042 3040 3041 3041 3039 3037 3035 3032 3029 3028 3027 3025 3022 3022 3015 3010 3009 3008 3007 3005 3002 2999